Location: Libas
(9.8833°N, 125.9833°E)
Time: 22:02:31
(UTC+00:00)

ADEOS - Pass Details

Date: 27 October 2020
Orbit: 793 x 794 km, 98.9° (Epoch: 25 November)

Event Time Altitude Azimuth Distance (km) Brightness Sun altitude
Rises 20:29:57 0° 354° (N) 3,282 6.6 -14.3°
Reaches altitude 10° 20:32:33 10° 343° (NNW) 2,353 5.7 -13.6°
Maximum altitude 20:36:56 28° 285° (WNW) 1,448 4.4 -12.6°
Drops below altitude 10° 20:41:19 10° 227° (SW) 2,355 5.7 -11.5°
Sets 20:43:56 0° 216° (SW) 3,284 6.5 -10.9°
